Retour au catalogue

STARLINK-32369

ActifCommunicationsVLEO
NORAD 60917·PAYLOAD·🇺🇸 United States

Lancé Aug 31, 2024 depuis Cape Canaveral Space Force Station

Loading…

Prochains Passages (prochaines 24 heures)

TLE

FraisSource: CelesTrak SupGP

Époque: Sep 14, 2026, 20:51 UTC

1 60917C 24154Q   26257.86923611 -.00045884  00000+0 -14755-2 0  2578
2 60917  53.1567 123.8951 0001241  86.1627  19.8806 15.31725858    17

Suivez STARLINK-32369 en temps réel avec AllMySat

Download on the App Store